Marshall, TX

9:13 AM CST on December 16, 2017 (GMT -0600)
Harrison County

Weather History for KASL - August, 2013

Change the Weather History Date:

Thursday, August 29, 2013

  Actual Average (KGGG) Record (KGGG)
Temperature  
Mean Temperature 86 °F -  
Max Temperature 98 °F 90 °F 103 °F (2000)
Min Temperature 73 °F 69 °F 55 °F (1992)
Cooling Degree Days 20    
Growing Degree Days 36 (Base 50)    
Moisture  
Dew Point 62 °F    
Average Humidity 51    
Maximum Humidity 80    
Minimum Humidity 25    
Precipitation  
Precipitation 0.00 in - - ()
Sea Level Pressure  
Sea Level Pressure 30.04 in    
Wind  
Wind Speed 1 mph (ENE)    
Max Wind Speed 9 mph    
Max Gust Speed -    
Visibility 10 miles    
Events      
Averages and records for this station are not official NWS values.
T = Trace of Precipitation, MM = Missing Value Source: NWS Daily Summary

Daily Weather History Graph

Daily Weather History Graph

Search for Another Location

Airport or City:

Trip Planner

Search our weather history database for the weather conditions in past years. The results will help you decide how hot, cold, wet, or windy it might be!

Date:

Astronomy

Aug. 29, 2013 Rise Set
Actual Time 6:50 AM CDT 7:45 PM CDT
Civil Twilight 6:25 AM CDT 8:10 PM CDT
Nautical Twilight 5:55 AM CDT 8:40 PM CDT
Astronomical Twilight 5:24 AM CDT 9:10 PM CDT
Moon 12:52 AM CDT (8/29) 3:04 PM CDT (8/29)
Length of Visible Light 13h 45m
Length of Day
12h 54m
Last Quarter, 38% of the Moon is Illuminated
Aug 29
Last Quarter
Sep 5
New
Sep 12
First Quarter
Sep 19
Full
Sep 26
Last Quarter

Hourly Weather History & Observations

Time (CDT) Temp. Heat Index Dew Point Humidity Pressure Visibility Wind Dir Wind Speed Gust Speed Precip Events Conditions
12:15 AM 79.7 °F - 63.0 °F 56% 30.04 in 10.0 mi Calm Calm - N/A   Scattered Clouds
12:35 AM 78.4 °F - 63.1 °F 59% 30.05 in 10.0 mi Calm Calm - N/A   Scattered Clouds
12:55 AM 77.2 °F - 63.1 °F 62% 30.05 in 10.0 mi Calm Calm - N/A   Clear
1:15 AM 76.3 °F - 64.2 °F 66% 30.05 in 10.0 mi Calm Calm - N/A   Clear
1:35 AM 77.0 °F - 64.0 °F 64% 30.05 in 10.0 mi Calm Calm - N/A   Scattered Clouds
1:55 AM 78.1 °F - 64.4 °F 63% 30.06 in 10.0 mi Calm Calm - N/A   Clear
2:15 AM 77.2 °F - 64.0 °F 64% 30.06 in 10.0 mi Calm Calm - N/A   Clear
2:35 AM 77.0 °F - 64.0 °F 64% 30.06 in 10.0 mi Calm Calm - N/A   Clear
2:55 AM 77.0 °F - 64.2 °F 65% 30.06 in 10.0 mi Calm Calm - N/A   Mostly Cloudy
3:15 AM 77.0 °F - 64.4 °F 65% 30.06 in 10.0 mi Calm Calm - N/A   Scattered Clouds
3:35 AM 76.5 °F - 65.1 °F 68% 30.06 in 10.0 mi Calm Calm - N/A   Scattered Clouds
3:55 AM 75.6 °F - 64.8 °F 69% 30.05 in 10.0 mi Calm Calm - N/A   Scattered Clouds
4:15 AM 73.8 °F - 64.6 °F 73% 30.05 in 10.0 mi Calm Calm - N/A   Clear
4:35 AM 73.0 °F - 65.1 °F 76% 30.05 in 10.0 mi Calm Calm - N/A   Clear
4:55 AM 73.0 °F - 65.7 °F 78% 30.05 in 10.0 mi Calm Calm - N/A   Scattered Clouds
5:15 AM 73.0 °F - 65.3 °F 77% 30.06 in 10.0 mi Calm Calm - N/A   Mostly Cloudy
5:35 AM 73.0 °F - 64.9 °F 76% 30.06 in 10.0 mi Calm Calm - N/A   Mostly Cloudy
5:55 AM 73.0 °F - 65.3 °F 77% 30.07 in 10.0 mi Calm Calm - N/A   Mostly Cloudy
6:15 AM 73.0 °F - 65.5 °F 77% 30.07 in 10.0 mi Calm Calm - N/A   Mostly Cloudy
6:35 AM 73.0 °F - 66.2 °F 79% 30.07 in 10.0 mi Calm Calm - N/A   Mostly Cloudy
6:55 AM 73.0 °F - 66.4 °F 80% 30.08 in 10.0 mi Calm Calm - N/A   Mostly Cloudy
7:15 AM 73.0 °F - 66.6 °F 80% 30.08 in 10.0 mi Calm Calm - N/A   Scattered Clouds
7:35 AM 73.0 °F - 66.2 °F 79% 30.08 in 10.0 mi Calm Calm - N/A   Scattered Clouds
7:55 AM 73.0 °F - 66.2 °F 79% 30.09 in 10.0 mi Calm Calm - N/A   Mostly Cloudy
8:15 AM 75.6 °F - 67.8 °F 77% 30.09 in 10.0 mi Calm Calm - N/A   Mostly Cloudy
8:35 AM 77.0 °F - 68.0 °F 74% 30.09 in 10.0 mi Calm Calm - N/A   Scattered Clouds
8:55 AM 78.1 °F - 68.2 °F 71% 30.09 in 10.0 mi Calm Calm - N/A   Scattered Clouds
9:15 AM 79.5 °F - 68.2 °F 68% 30.09 in 10.0 mi Calm Calm - N/A   Scattered Clouds
9:35 AM 83.3 °F 87.4 °F 70.0 °F 64% 30.10 in 10.0 mi Calm Calm - N/A   Clear
9:55 AM 85.6 °F 90.1 °F 70.0 °F 59% 30.10 in 10.0 mi Calm Calm - N/A   Scattered Clouds
10:15 AM 87.1 °F 90.9 °F 68.4 °F 54% 30.10 in 10.0 mi Calm Calm - N/A   Scattered Clouds
10:35 AM 90.7 °F 94.1 °F 67.1 °F 46% 30.09 in 10.0 mi NW 3.5 mph - N/A   Clear
10:55 AM 90.9 °F 90.6 °F 60.3 °F 36% 30.09 in 10.0 mi Calm Calm - N/A   Clear
11:15 AM 93.2 °F 93.7 °F 62.1 °F 35% 30.09 in 10.0 mi East 6.9 mph - N/A   Clear
11:35 AM 93.2 °F 93.3 °F 61.2 °F 34% 30.08 in 10.0 mi Calm Calm - N/A   Clear
12:15 PM 93.2 °F 93.3 °F 60.6 °F 34% 30.07 in 10.0 mi ENE 6.9 mph - N/A   Mostly Cloudy
12:55 PM 93.4 °F 92.8 °F 59.5 °F 32% 30.06 in 10.0 mi East 5.8 mph - N/A   Scattered Clouds
1:15 PM 95.9 °F 94.9 °F 57.9 °F 28% 30.04 in 10.0 mi East 5.8 mph - N/A   Mostly Cloudy
1:35 PM 96.4 °F 95.0 °F 56.7 °F 26% 30.04 in 10.0 mi NNE 8.1 mph - N/A   Scattered Clouds
1:55 PM 96.3 °F 94.7 °F 56.3 °F 26% 30.03 in 10.0 mi East 5.8 mph - N/A   Scattered Clouds
2:15 PM 97.3 °F 96.2 °F 56.8 °F 26% 30.03 in 10.0 mi North 4.6 mph - N/A   Scattered Clouds
2:35 PM 95.9 °F 94.6 °F 57.2 °F 27% 30.02 in 10.0 mi North 4.6 mph - N/A   Mostly Cloudy
2:55 PM 95.9 °F 94.6 °F 57.4 °F 27% 30.01 in 10.0 mi NNE 4.6 mph - N/A   Scattered Clouds
3:15 PM 95.9 °F 94.9 °F 57.7 °F 28% 30.00 in 10.0 mi East 5.8 mph - N/A   Mostly Cloudy
3:35 PM 97.0 °F 95.7 °F 56.7 °F 26% 30.00 in 10.0 mi ESE 3.5 mph - N/A   Scattered Clouds
3:55 PM 96.1 °F 94.8 °F 56.7 °F 27% 29.99 in 10.0 mi Calm Calm - N/A   Scattered Clouds
4:15 PM 97.5 °F 96.1 °F 56.3 °F 25% 29.99 in 10.0 mi Calm Calm - N/A   Clear
4:35 PM 98.2 °F 97.1 °F 57.2 °F 25% 29.98 in 10.0 mi East 9.2 mph - N/A   Scattered Clouds
4:55 PM 96.1 °F 94.8 °F 57.0 °F 27% 29.98 in 10.0 mi North 4.6 mph - N/A   Scattered Clouds
5:15 PM 96.4 °F 95.3 °F 57.7 °F 27% 29.98 in 10.0 mi East 6.9 mph - N/A   Clear
5:35 PM 96.3 °F 95.9 °F 59.0 °F 29% 29.97 in 10.0 mi East 6.9 mph - N/A   Mostly Cloudy
5:55 PM 95.9 °F 95.7 °F 59.4 °F 30% 29.97 in 10.0 mi East 5.8 mph - N/A   Scattered Clouds
6:15 PM 95.9 °F 94.9 °F 58.3 °F 28% 29.98 in 10.0 mi NE 4.6 mph - N/A   Clear
6:35 PM 95.9 °F 95.7 °F 60.1 °F 30% 29.98 in 10.0 mi East 6.9 mph - N/A   Clear
6:55 PM 95.7 °F 96.3 °F 61.2 °F 32% 29.98 in 10.0 mi ESE 4.6 mph - N/A   Clear
7:15 PM 93.2 °F 92.9 °F 60.1 °F 33% 29.98 in 10.0 mi East 4.6 mph - N/A   Clear
7:35 PM 93.2 °F 93.7 °F 61.5 °F 35% 29.98 in 10.0 mi ESE 3.5 mph - N/A   Clear
7:55 PM 90.7 °F 90.7 °F 61.2 °F 37% 29.99 in 10.0 mi East 3.5 mph - N/A   Clear
8:15 PM 90.7 °F 91.7 °F 63.0 °F 40% 29.99 in 10.0 mi Calm Calm - N/A   Clear
8:35 PM 88.7 °F 89.1 °F 62.2 °F 41% 29.99 in 10.0 mi Calm Calm - N/A   Clear
8:55 PM 86.9 °F 87.2 °F 62.1 °F 43% 30.00 in 10.0 mi Calm Calm - N/A   Clear
9:15 PM 85.6 °F 86.1 °F 61.9 °F 45% 30.01 in 10.0 mi Calm Calm - N/A   Clear
9:35 PM 85.6 °F 85.7 °F 61.0 °F 43% 30.01 in 10.0 mi Calm Calm - N/A   Clear
9:55 PM 85.6 °F 85.9 °F 61.2 °F 44% 30.01 in 10.0 mi Calm Calm - N/A   Clear
10:15 PM 85.6 °F 86.1 °F 61.9 °F 45% 30.01 in 10.0 mi Calm Calm - N/A   Clear
10:35 PM 85.6 °F 86.3 °F 62.6 °F 46% 30.02 in 10.0 mi Calm Calm - N/A   Clear
10:55 PM 83.3 °F 83.9 °F 61.9 °F 48% 30.02 in 10.0 mi Calm Calm - N/A   Clear
11:15 PM 79.2 °F - 61.3 °F 54% 30.02 in 10.0 mi Calm Calm - N/A   Clear
11:35 PM 78.1 °F - 61.9 °F 57% 30.02 in 10.0 mi Calm Calm - N/A   Clear
11:55 PM 77.0 °F - 61.2 °F 58% 30.02 in 10.0 mi Calm Calm - N/A   Clear